Tracking 27382 objects as of 4-Jun-2023
HD Live streaming from Space Station
objects crossing your sky now

ATLAS 5 CENTAUR DEB

Track ATLAS 5 CENTAUR DEB now!


NORAD ID: 46639
Int'l Code: 2014-055CP
Perigee: 8,303.8 km
Apogee: 34,366.9 km
Inclination: 20.8 °
Period: 764.9 minutes
Semi major axis: 27706 km
RCS: Unknown
Launch date: September 17, 2014
Source: United States (US)
Launch site: AIR FORCE EASTERN TEST RANGE (AFETR)

Note: This is SATELLITE DEBRIS
Your satellite tracking list
Your tracking list is empty




NASA's NSSDC Master Catalog

Two Line Element Set (TLE):
1 46639U 14055CP  23134.50960259 -.00000175  00000-0  00000+0 0  9995
2 46639  20.7757 250.8038 4703456 339.7807   6.4614  1.88249874 17853
Source of the keplerian elements: AFSPC